Погода Мыс Стерлегова

Погода Мыс Стерлегова : погода сейчас, прогноз погоды и архив. Всё, что Вы хотите узнать о погоде Мыс Стерлегова!

Поиск расширенной информации на нашем сайте:

Другие новости

Новости СМИ2

Главная страница сайта

Новости сайта

03.07.2017

Напоминаем, что на нашем специализированном сайте Метеоцентр.Азия вы можете получить высокодетализированные автоматические прогнозы погоды по пунктам России, СНГ и мира в авиационном формате (включающие направление и скорость ветра, видимость, явления погоды, количество и форму облачности, нижнюю и верхнюю границу облачности).


Погода Мыс Стерлегова - сегодня

Время (UTC), дата Ветер
(°,м/с) 
Видим.   Явления Облачность Т
(°С)
Тd
(°С)
f(%) Тe
(°С)
Pmin
(гПа)
dP
(гПа)
Po
(мм)
O2
(г/м3)
Тmin Tmax R s Состояние
почвы
21 24.07.17 330 (СЗ) 8{11}  20000 м    9/9 480 м 
[Sc]
+0.6 -1 89 -4  1011.8  0.5  758  305           
00 25.07.17 320 (СЗ) 7{10}  20000 м    9/9 420 м 
[Sc]
-0 -1.4 90 -4  1012.7  0.8  759  306  -0.2      влажная 
03 25.07.17 320 (СЗ) 20000 м    10/10 270 м 
[St]
+0.3 -1 91 -3  1013.2  0.5  759  306           
06 25.07.17 290 (З) 20000 м    10/10 240 м 
[St]
+0.9 -0.3 92 -2  1013.1  759  305           
09 25.07.17 270 (З) 20000 м    10/10 180 м 
[St]
+2 +1.1 94 -1  1012.5  -0.6  758  303           
12 25.07.17 300 (СЗ) 9-11{12}  20000 м    10/10 270 м 
[St]
+1.6 +0.6 93 -3  1012.4  -0.1  758  304    +2.6       
15 25.07.17 300 (СЗ) 20000 м    10/10 210 м 
[St]
+1.4 +0.6 94 -2  1011.9  758  304           
18 25.07.17 290 (З) 7{11}  20000 м    10/10 210 м 
[St]
+1.3 +0.4 94 -2  1011.8  -0.1  758  304           
21 25.07.17 310 (СЗ) 20000 м    10/10 240 м 
[St]
+1.2 +0.1 92 -2  1011.9  758  304           
00 26.07.17 330 (СЗ) н/о    н/о 
+0.5 -0.4 94 -3  1012.9  759  305  +0.4         
03 26.07.17 320 (СЗ) 20000 м    10/10 180 м 
[St]
+0.1 -0.8 94 -3  1013.3  0.4  759  306  -0.1         
06 26.07.17 290 (З) 20000 м    10/10 210 м 
[St]
+0.3 -0.7 93 -2  1014  0.7  760  306           
09 26.07.17 300 (СЗ) 20000 м    10/10 300 м 
[St]
+0.6 -1 89 -2  1014.5  0.5  760  306           
12 26.07.17 310 (СЗ) 20000 м    10/10 210 м 
[St]
+0 -0.8 94 -2  1014.6  0.1  760  306    +0.9       
15 26.07.17 320 (СЗ) 1000 м  дымка  10/10 120 м 
[St]
-0.1 -0.4 98 -1  1014.8  0.2  760  306           
18 26.07.17 300 (СЗ) 20000 м    10/10 270 м 
[St]
+0.7 -0.3 93 -2  1015  0.2  760  306           
21 26.07.17 290 (З) 20000 м    10/10 270 м 
[St]
+0.8 -0.2 93 -2  1015.1  0.1  760  305           
00 27.07.17 290 (З) 20000 м    10/10 210 м 
[St]
+0.6 -0.4 93 -2  1015.5  0.5  761  306  -0.2         
03 27.07.17 290 (З) 20000 м    8/8 240 м 
[St]
+0.9 -0.2 92 -1  1015.7  0.1  761  306           
06 27.07.17 290 (З) 20000 м    10/10 180 м 
[St]
+1.1 -0 92 -1  1016.2  0.6  761  306           
09 27.07.17 300 (СЗ) 20000 м    10/10 180 м 
[St]
+1.1 +0.1 93 -1  1017.1  0.8  762  306           
12 27.07.17 280 (З) 20000 м    10/10 150 м 
[St]
+1.2 +0.2 93 1017.5  0.4  762  306    +1.6       
15 27.07.17 280 (З) 20000 м    10/10 150 м 
[St]
+0.3 -0.1 97 -1  1017.5  762  307           
18 27.07.17 270 (З) 20000 м    10/10 150 м 
[St]
+0.2 -0.2 97 -1  1017.8  0.3  762  307           
21 27.07.17 260 (З) 4000 м  дымка  10/10 120 м 
[St]
+0.4 +0.1 98 -1  1017.8  762  307           
Время (UTC), дата Ветер
(°,м/с) 
Видим.   Явления Облачность Т
(°С)
Тd
(°С)
f(%) Тe
(°С)
Pmin
(гПа)
dP
(гПа)
Po
(мм)
O2
(г/м3)
Тmin Tmax R s Состояние
почвы

Для получения пояснительной информации подведите курсор к названию столбца.

ПОГОДА Мыс Стерлегова - архив

Всё, что Вы хотите узнать о погоде Мыс Стерлегова - удобно и подробно!

Выберите нужную дату (начиная с 1 января 2015* года) и нажмите кнопку "Найти".
Будут отображены архивные сводки погоды по пункту Мыс Стерлегова, начиная с указанной даты.


Отображать данные в формате CSV (для использования в таблицах Excel)


Внимание! Наш архив погоды предназначен исключительно для личного некоммерческого использования в познавательных целях. Если Вам необходимы официальные справки о состоянии погоды (для производственных, юридических, коммерческих и т.п. целей), обращайтесь в органы Росгидромета.

*Примечание: данная дата относится к архиву по метеостанциям СССР (Россия, СНГ, Балтия).
Архив по метеостанциям Зарубежной Европы и Азии (кроме Китая) хранится 10 дней, по другим регионам земного шара (Китай, Африка, Америка, Австралия, Океания) - 1 день.

Мыс Стерлегова - район местоположения метеостанции


Название, широта, долгота, высота метеостанции:
Мыс Стерлегова 75.4°ш. 88.8°д. 10 м над ур. моря [Российская Федерация]

Дополнительная информация

В oтличие oт бoльшинства пoгoдных сайтoв мы публикуем пoдрoбную метеoинфoрмацию в детальнoм прoфессиoнальнoм фoрмате.

Характеристики температуры и влажнoсти вoздуха измеряются на высoте 2 м в тени вдали oт зданий и деревьев.
Скoрoсть ветра измеряется на высoте 10 м (на урoвне рoста челoвека скoрoсть ветра ниже в 1.5-2 раза). Если метеoстанция нахoдится в гoрoде или в лесу, тo скoрoсть ветра занижена на 2-4 м/с пo сравнению с oткрытым местoм. Скoрoсть ветра над акватoриями крупных рек и oзёр, а также на вершинах хoлмoв на 2-5 м/с выше, чем в oбычных услoвиях.
Атмoсфернoе давление в разных тoчках местнoсти мoжет значительнo oтличаться oт давления на метеoстанции, в зависимoсти oт услoвий рельефа (при пoдъёме на 10 м давление пoнижается примернo на 1 мм рт.ст.).